Regional Weather Roundup
Issued by NWS

Home | Current Version | Previous Version | Text Only | Print | Product List | Glossary Off
Versions: 1 2 3 4 5 6 7 8 9 10 11 12 13 14 15 16 17 18 19 20 21 22 23 24 25 26 27 28 29 30 31 32 33 34 35 36 37 38 39 40 41 42 43 44 45 46 47 48 49 50

278
ASUS44 KJAN 241510
RWRMS

MISSISSIPPI HOURLY WEATHER ROUNDUP
NATIONAL WEATHER SERVICE JACKSON MS
1000 AM CDT FRI OCT 24 2014

NOTE: "FAIR: INDICATES FEW OR NO CLOUDS BELOW 12,000 FEET WITH NO
SIGNIFICANT WEATHER AND/OR OBSTRUCTIONS TO VISIBILITY.

MSZ001>002-007>008-010>013-018>021-025>028-034>036-241600-
NORTHWEST MISSISSIPPI

CITY           SKY/WX    TMP DP  RH WIND       PRES   REMARKS
CLARKSDALE     FAIR      57  52  82 CALM      30.18F
CLEVELAND      FAIR      58  52  79 N3        30.18S
GREENWOOD      SUNNY     58  51  78 CALM      30.17R
GREENVILLE     SUNNY     60  50  69 N6        30.18R
GRENADA          N/A    N/A N/A N/A MISG        N/A
OLIVE BRANCH   MOSUNNY   55  50  82 CALM      30.16F
OXFORD         FAIR      57  46  67 N3        30.18S
TUNICA         SUNNY     55  50  82 CALM      30.17F
$$

MSZ003>006-009-014>017-022>024-029>033-037>039-241600-
NORTHEAST MISSISSIPPI

CITY           SKY/WX    TMP DP  RH WIND       PRES   REMARKS
COLUMBUS AFB   SUNNY     60  49  67 N7        30.14S
CORINTH        FAIR      57  48  72 CALM      30.15R
GOLDN TRIANGLE SUNNY     61  48  63 N7        30.14S
STARKVILLE     FAIR      59  50  72 N5        30.15S
TUPELO         SUNNY     59  47  64 NE7       30.15S
$$

MSZ040-058-241600-
CENTRAL MISSISSIPPI

CITY           SKY/WX    TMP DP  RH WIND       PRES   REMARKS
JACKSON INTL   MOSUNNY   61  52  72 N3        30.15S
JACKSON HAWKNS SUNNY     61  49  64 NE3       30.15F
MERIDIAN KEY   SUNNY     59  49  69 CALM      30.13F
MERIDIAN NAS   MOSUNNY   61  49  64 VRB3      30.13F
RAYMOND        FAIR      57  52  82 CALM      30.16S
VICKSBURG      SUNNY     60  50  69 N3        30.17S
$$

MSZ059>079-241600-
SOUTH MISSISSIPPI

CITY           SKY/WX    TMP DP  RH WIND       PRES   REMARKS
BROOKHAVEN     FAIR      57  52  82 CALM      30.16S
COLUMBIA         N/A    N/A N/A N/A MISG        N/A
HATTIESBURG    SUNNY     61  50  67 N7        30.14S
MCCOMB         SUNNY     61  48  62 N6        30.14S
NATCHEZ        SUNNY     55  52  88 CALM      30.17S
PINE BELT      SUNNY     61  48  63 N6        30.15R
$$

MSZ080>082-241600-
COASTAL MISSISSIPPI

CITY           SKY/WX    TMP DP  RH WIND       PRES   REMARKS
BAY ST LOUIS   SUNNY     63  46  55 CALM      30.12S
BILOXI         SUNNY     64  50  60 N5        30.11S
PASCAGOULA     SUNNY     65  50  58 N5        30.11R
GULFPORT       MOSUNNY   63  49  60 N5        30.11S
$$



USA.gov is the U.S. government's official web portal to all federal, state and local government web resources and services.